Theta_e
345 345 348 347 348 349 350 350 350 350 350 350 349 349 350 350 350 350 350 350 350 350 350 350 350 349 349 349 348 349 349 348 347 346 345 345 346 346 345 343 342 343 343 343 342 343 344 345 346 346 346 345 347 347 347 347 347 346 346 345 344 344 344 344 343 342 341 341 341 344 343 340 342 342 343 342 342 341 340 341 341 341 344 345 349
344 347 348 351 348 349 349 349 350 350 350 351 350 351 351 351 351 351 349 349 350 349 349 349 349 348 349 349 348 348 349 348 347 346 345 344 345 346 345 342 342 342 342 342 341 341 341 342 344 344 345 344 347 347 347 347 346 346 345 345 344 343 343 343 342 341 341 341 339 338 339 340 340 341 340 340 341 340 338 339 340 339 341 346 346
345 347 349 350 347 347 349 349 350 350 350 350 351 351 351 351 351 351 350 350 349 349 349 349 349 348 348 348 347 348 348 348 347 346 345 344 344 344 344 343 342 342 341 341 341 340 339 340 341 343 344 346 347 346 346 345 345 344 345 344 343 342 343 343 341 341 341 340 340 338 339 338 339 339 340 340 340 339 337 338 339 339 338 343 344
345 347 349 348 344 347 349 349 350 350 349 350 351 351 351 351 350 350 350 349 349 349 349 349 349 349 348 349 348 347 348 348 347 346 345 344 343 343 343 343 341 342 341 342 341 341 340 340 341 343 344 346 346 346 345 345 344 344 344 343 343 342 343 342 340 340 340 340 339 336 336 335 335 337 340 340 339 339 337 338 338 338 339 340 341
345 348 349 350 350 346 347 350 350 350 349 349 349 350 350 350 350 350 349 349 349 349 349 348 348 348 348 347 349 347 347 347 347 346 345 343 343 343 343 342 342 341 341 341 341 340 340 339 340 343 345 345 345 345 345 345 344 343 343 342 342 342 342 341 340 340 340 339 337 335 334 333 334 336 338 338 337 337 336 337 337 338 337 337 338
346 347 348 349 350 351 345 348 349 349 349 349 348 348 349 349 349 349 350 348 349 349 347 348 347 348 348 348 347 346 346 346 346 345 344 343 342 343 342 342 342 341 341 341 341 340 340 339 341 344 346 346 345 345 345 344 344 343 343 342 343 342 340 339 339 340 339 337 335 333 332 333 332 332 337 337 337 335 336 336 337 338 337 338 338
346 347 348 349 350 349 342 347 349 349 349 348 349 348 348 348 348 348 348 348 348 348 348 348 348 348 348 348 347 346 346 346 345 344 342 342 342 342 341 341 341 341 341 341 340 340 339 341 341 344 346 344 344 344 344 343 342 342 342 342 341 340 339 338 338 337 337 335 334 333 331 332 332 332 337 338 337 336 335 337 337 337 338 337 338
347 347 348 349 351 345 342 348 349 349 348 348 348 348 348 348 348 348 348 348 348 348 348 347 348 348 348 347 346 346 346 344 343 342 340 340 342 342 341 341 340 340 340 340 340 340 341 342 345 346 346 344 343 343 342 342 343 342 342 341 340 339 338 337 337 337 336 333 335 333 332 332 333 332 337 337 336 336 335 336 336 337 337 336 335
345 346 347 349 350 341 342 347 349 349 348 348 348 348 348 348 349 349 348 348 348 348 347 347 347 347 347 346 345 345 345 344 342 340 339 338 341 341 341 340 339 339 340 340 339 340 342 343 344 344 345 343 342 342 341 342 342 341 340 339 339 338 337 337 337 336 333 333 332 333 332 331 332 333 336 336 337 336 335 334 334 336 336 335 334
346 347 348 349 351 339 341 345 348 348 348 348 347 347 348 348 348 348 348 347 347 347 348 347 347 347 347 346 345 345 344 343 341 339 337 338 340 340 340 339 339 339 339 339 339 339 340 342 343 342 343 342 341 341 341 341 340 339 338 338 338 337 336 336 336 333 333 333 332 332 332 334 331 332 334 338 337 336 335 334 334 334 333 334 334
346 347 348 349 350 339 344 346 348 349 348 347 347 347 347 347 348 347 347 347 347 347 347 347 347 347 346 346 345 345 344 342 339 337 336 337 339 340 339 338 338 338 337 338 338 338 338 340 341 341 342 340 339 338 338 338 337 337 336 336 335 335 334 334 333 334 332 332 331 330 332 335 332 332 336 337 336 336 334 334 334 334 333 334 335
346 348 348 348 345 338 343 345 346 348 348 347 347 346 346 347 348 347 347 347 347 347 347 347 346 346 346 345 344 344 343 340 338 336 336 337 339 339 339 338 337 337 337 337 336 338 340 341 341 339 338 336 335 335 335 335 335 334 333 332 332 331 330 332 331 332 333 332 332 331 331 332 332 333 336 337 337 335 334 333 333 334 334 333 333
347 346 348 349 349 337 341 344 345 348 348 347 347 346 346 346 347 347 346 346 346 346 347 346 346 347 346 345 344 343 342 339 337 336 335 337 338 339 338 337 337 336 336 335 335 336 336 337 338 336 334 333 332 333 333 333 332 331 331 330 329 328 328 331 331 332 332 335 334 334 335 336 337 337 338 338 337 337 335 334 334 333 333 333 333
346 347 347 349 349 342 338 341 342 345 348 347 347 346 346 345 346 346 345 346 346 346 347 346 346 346 345 344 343 342 341 339 337 335 335 336 338 337 337 337 337 336 336 335 336 334 334 335 335 332 331 330 330 331 331 332 331 330 328 328 327 327 327 329 331 333 334 335 336 336 336 336 337 337 338 339 339 339 339 337 334 335 333 334 333
345 348 347 348 349 347 339 335 337 339 343 346 347 347 346 346 347 347 346 346 346 346 346 346 346 345 344 343 343 341 340 338 336 335 334 335 335 334 335 336 337 336 336 335 335 334 333 334 331 329 328 327 327 329 330 330 329 328 327 326 325 325 325 330 330 331 332 334 334 335 336 336 337 338 338 339 338 338 338 338 337 336 336 337 335
347 347 348 346 348 348 346 336 332 336 339 342 343 346 347 347 347 347 346 346 346 346 346 346 345 344 344 343 342 341 340 339 337 335 333 332 332 332 333 334 334 335 335 334 334 332 332 330 328 326 325 325 327 328 328 328 327 326 325 325 324 324 323 326 330 330 329 331 332 333 333 335 336 337 338 338 338 338 337 337 337 338 336 336 336
345 347 347 345 347 347 347 345 338 330 333 334 337 341 344 345 346 346 346 346 346 346 345 345 345 345 343 342 342 341 340 338 337 335 333 332 331 329 329 331 333 333 333 333 332 330 328 327 325 324 323 324 326 326 326 326 326 325 324 323 323 324 323 324 329 329 328 330 331 331 331 332 334 336 337 337 337 337 337 337 337 337 337 337 337
344 344 341 343 345 346 346 345 345 345 347 338 331 334 339 343 344 343 343 344 345 345 344 344 344 343 342 340 339 338 338 337 336 335 333 332 330 328 328 329 331 331 331 330 329 328 326 325 324 323 323 324 325 326 325 324 323 322 322 322 322 323 323 322 328 328 327 328 328 328 329 332 333 334 336 336 336 336 336 336 336 336 336 336 336
340 338 338 338 339 343 343 345 346 345 345 345 346 344 334 338 340 340 341 342 342 340 340 340 339 339 338 336 335 333 332 332 332 332 332 331 329 327 328 327 329 330 330 329 328 327 326 325 324 324 323 323 324 324 323 322 321 320 320 320 321 321 321 324 328 328 327 326 327 327 328 332 332 332 335 335 335 335 336 336 335 334 335 336 335
336 337 334 330 334 339 343 343 343 343 344 345 345 347 334 333 337 338 338 339 337 336 336 335 332 331 331 331 329 332 329 330 325 330 328 329 327 326 326 326 326 327 328 328 327 327 326 325 324 323 322 321 321 320 319 319 319 318 318 319 319 319 325 326 327 326 325 325 325 326 329 330 331 332 332 334 334 334 334 334 333 334 334 335 334
329 331 334 330 328 332 336 340 341 343 344 344 345 346 343 331 333 331 331 332 333 332 330 325 323 322 326 325 327 335 334 333 332 332 324 330 320 322 325 325 325 325 325 325 325 324 323 322 321 320 318 317 314 313 314 315 315 315 315 316 316 322 323 324 325 325 325 324 324 326 329 329 329 332 331 332 331 331 332 332 333 332 333 333 333
331 330 328 331 331 327 332 335 338 341 341 343 344 347 344 340 345 345 342 334 328 326 334 339 332 338 326 335 339 336 335 335 333 329 331 328 326 321 322 325 326 325 324 324 324 322 321 320 319 318 316 314 312 313 311 310 310 311 312 312 316 318 320 321 323 324 324 325 325 326 329 328 328 330 330 331 330 329 329 329 330 331 332 332 332
329 331 329 328 329 329 329 333 335 337 340 342 343 343 343 345 346 345 341 333 334 339 339 338 341 340 341 341 338 339 336 335 334 331 331 321 325 321 322 325 326 325 324 323 322 320 319 318 317 315 314 312 313 312 312 311 310 309 309 312 313 314 316 318 320 321 321 321 324 326 327 327 328 329 330 330 329 328 328 327 328 328 329 329 330
330 330 329 324 325 328 327 330 334 337 341 342 342 342 343 343 343 344 342 340 339 339 340 339 340 341 341 340 340 339 337 334 324 322 323 327 324 319 319 319 321 321 319 320 319 318 317 316 314 313 313 312 311 310 309 309 308 309 309 309 310 311 312 314 316 318 319 319 320 324 328 327 328 328 328 329 329 327 328 327 327 327 327 328 329
330 324 324 323 323 323 325 328 331 334 339 339 340 341 341 343 342 343 342 341 339 339 339 340 340 340 339 339 339 338 336 332 330 330 329 326 324 323 323 323 322 320 317 318 316 316 316 316 314 312 312 311 309 308 307 306 306 306 306 306 307 308 310 311 312 315 316 317 316 321 325 327 328 329 329 330 330 329 329 328 328 328 328 328 327
322 324 325 322 322 320 321 325 327 331 334 338 338 340 342 341 341 341 341 340 339 339 339 338 339 339 339 340 339 338 335 333 332 332 330 326 324 323 322 321 321 320 319 318 317 317 315 314 312 310 308 307 305 305 304 303 303 303 304 304 305 306 307 308 309 311 314 314 313 316 322 326 327 329 330 331 330 330 330 329 329 329 328 327 327
322 325 323 322 320 321 321 322 326 330 331 333 334 336 337 340 340 341 340 339 340 339 338 338 338 338 338 338 338 337 336 333 332 331 329 326 323 321 320 321 320 319 318 317 316 315 313 311 309 307 306 304 303 303 302 302 302 302 302 302 303 303 305 306 306 308 310 312 310 311 318 322 325 327 328 330 330 330 329 329 329 328 327 328 327
322 322 321 321 321 322 322 323 325 328 332 331 333 334 335 337 341 337 340 338 339 338 338 338 337 337 337 337 337 339 336 334 331 330 328 326 323 322 321 320 320 318 318 316 314 313 310 308 306 305 303 302 301 301 301 301 301 301 301 301 301 301 302 303 304 305 307 309 310 308 313 319 320 323 326 328 329 328 328 329 328 328 327 328 327
321 321 321 321 322 322 322 323 326 326 329 331 333 335 336 336 339 339 339 334 339 340 338 338 337 337 338 337 337 336 336 334 331 330 328 326 324 322 321 320 319 318 317 314 312 310 308 306 304 302 301 300 299 299 299 299 300 300 299 299 299 299 300 301 301 302 304 306 307 304 308 313 317 318 320 323 324 325 325 326 327 326 326 325 325
323 323 321 322 322 321 322 323 325 327 328 329 333 335 335 336 336 337 340 336 340 339 338 338 338 337 336 337 336 336 335 334 331 330 327 324 323 321 320 319 320 317 315 311 310 308 305 303 302 301 299 299 298 298 298 299 298 299 298 298 298 297 298 298 299 299 300 302 304 303 302 306 313 316 317 318 320 322 323 321 322 324 324 324 323
322 321 321 321 321 320 322 322 323 324 326 327 331 334 335 335 337 336 333 338 340 339 336 338 340 338 336 336 336 336 335 334 331 327 326 324 322 320 319 319 319 318 315 311 309 307 305 304 302 300 299 299 298 298 297 298 298 297 298 298 297 297 297 297 297 298 298 298 300 301 301 301 306 311 314 315 317 319 320 320 321 320 322 322 322
318 319 320 320 319 319 320 321 321 323 324 325 330 332 333 334 335 335 332 330 336 338 337 336 335 337 337 337 336 336 334 334 332 329 326 323 321 320 319 318 316 315 313 309 307 306 304 303 302 301 300 299 298 298 298 297 297 297 297 297 297 297 296 296 297 297 297 297 297 298 298 300 300 303 308 313 316 317 317 318 318 318 319 320 321
318 318 318 317 317 317 318 318 320 322 323 323 328 331 332 332 330 331 331 330 328 333 334 333 334 334 334 335 336 335 334 332 331 329 327 324 321 319 318 316 314 313 311 307 305 303 302 301 301 301 299 299 298 297 298 297 296 296 296 296 296 296 296 296 296 296 296 296 296 296 297 297 298 298 300 304 310 313 315 316 316 317 319 318 319
316 316 316 315 316 318 318 319 320 321 322 323 327 328 330 331 330 327 327 329 328 327 328 329 331 331 332 333 332 335 334 334 330 328 326 323 321 320 318 315 312 310 307 305 303 302 301 300 299 299 298 297 296 296 295 295 295 295 295 295 295 295 295 295 295 295 295 295 295 296 295 296 295 297 297 298 302 307 311 313 313 313 315 315 316
316 316 315 316 316 317 317 317 319 320 321 322 325 327 329 330 328 326 325 326 327 324 323 327 327 330 329 329 331 331 333 333 330 326 325 322 320 318 317 313 311 308 306 305 304 304 302 301 299 298 298 297 297 296 296 295 294 294 294 295 294 294 295 294 294 295 294 295 295 295 295 294 294 295 296 295 296 300 304 308 309 310 311 311 312
314 315 315 316 315 316 317 317 318 319 320 321 322 324 324 325 325 319 322 322 322 321 320 320 322 326 328 327 327 328 329 328 327 326 323 320 316 313 312 311 311 310 307 306 305 304 302 301 300 298 295 295 295 294 295 294 294 293 294 293 293 293 293 293 294 294 294 293 293 293 293 293 294 293 294 294 293 295 298 301 304 306 307 307 309
314 314 314 314 315 315 316 317 317 318 318 318 320 320 319 321 320 318 319 318 318 317 316 317 321 321 322 321 322 324 326 324 322 322 320 318 315 312 311 311 310 307 306 305 303 302 301 300 298 297 297 295 295 294 293 293 293 292 293 293 293 293 293 293 293 293 294 293 293 293 293 293 293 294 294 294 294 293 294 296 298 301 302 303 305
314 314 314 314 314 315 316 317 318 318 318 316 315 314 314 316 316 315 313 313 313 314 314 316 316 318 318 317 319 321 321 322 320 317 317 316 312 310 309 309 309 307 305 304 301 301 300 299 296 296 296 295 294 293 292 292 293 292 292 292 292 292 292 292 293 293 293 292 292 292 292 292 293 293 293 294 294 294 294 293 293 294 296 299 302
313 312 313 314 315 315 315 315 316 316 314 313 311 311 311 312 312 311 309 309 309 312 313 313 312 314 315 315 316 318 318 316 315 313 310 310 309 308 308 307 306 305 303 301 300 300 299 297 296 295 297 296 294 294 293 293 292 292 291 291 292 292 292 292 292 292 292 293 292 292 293 292 292 293 293 293 293 293 293 293 292 292 292 295 298
312 311 312 313 313 314 314 314 315 315 312 311 309 309 310 310 308 306 307 308 308 307 308 310 312 311 311 312 312 312 312 312 312 309 309 307 306 306 306 306 305 304 302 300 298 298 297 296 296 297 295 295 295 294 294 292 291 291 290 290 291 291 291 291 291 291 292 292 292 292 291 291 292 292 292 292 293 293 292 292 292 291 292 292 294
311 311 311 312 312 312 312 311 311 311 311 309 308 308 309 309 309 308 307 308 307 307 307 307 307 308 308 309 310 312 310 310 309 309 308 307 306 304 303 303 304 303 301 300 300 299 297 297 296 296 294 293 293 295 294 294 292 290 290 290 290 291 290 290 290 290 291 291 291 291 291 291 291 291 291 292 292 292 291 291 291 291 290 291 291
310 310 310 311 311 312 311 311 308 309 310 309 309 309 310 311 311 310 306 305 305 305 305 304 303 303 306 307 307 307 308 307 308 309 308 307 305 304 303 302 302 303 302 301 299 298 298 297 297 295 296 293 292 295 296 294 292 290 288 288 288 290 290 289 288 289 290 291 291 291 291 290 290 291 291 291 291 290 290 290 290 290 290 290 290
310 310 311 311 311 311 311 311 307 308 309 310 310 310 310 309 311 308 306 302 300 301 301 300 301 302 301 302 304 306 306 305 306 307 308 307 307 306 304 303 302 301 300 298 298 298 298 297 297 295 293 295 294 296 296 298 294 293 292 290 287 287 288 288 288 288 288 289 290 290 290 290 290 290 291 290 290 290 290 290 289 289 289 289 289
310 310 310 310 310 310 311 309 307 308 308 309 310 308 305 303 303 302 300 300 298 297 298 298 299 299 299 299 300 301 301 301 302 303 304 304 305 304 303 303 301 301 300 298 298 298 298 298 297 296 295 292 292 292 295 296 296 293 290 293 290 291 285 286 286 287 288 288 289 288 289 289 290 290 290 290 289 289 289 289 288 288 288 288 288
310 309 309 309 310 310 311 309 307 308 308 307 304 303 301 299 297 297 297 297 298 297 297 296 297 296 296 297 297 298 299 299 300 301 302 301 301 301 301 300 300 300 300 299 299 299 299 299 298 296 296 294 293 294 294 295 297 295 297 292 291 290 291 287 287 285 288 287 287 288 288 289 289 289 289 289 289 289 289 288 288 288 288 287 287
309 310 310 310 310 310 311 309 308 307 306 304 301 301 301 299 297 298 298 297 296 297 297 296 295 296 297 295 295 296 297 298 298 299 300 299 298 300 300 300 299 300 301 301 300 299 299 299 298 298 298 298 297 295 294 293 294 295 295 294 297 294 291 288 287 283 287 288 287 287 288 288 289 289 289 288 289 288 288 288 288 287 287 287 286
309 310 310 310 310 311 310 309 307 306 304 301 300 300 301 302 302 303 303 301 299 299 303 300 297 296 296 295 295 295 296 296 297 298 299 298 298 298 299 300 300 300 301 301 299 299 299 299 299 300 300 299 298 296 295 292 292 293 293 294 294 292 295 289 288 287 283 285 288 287 287 288 288 288 288 288 288 288 288 287 287 287 286 286 286
309 309 309 309 309 310 309 309 308 305 302 301 300 302 301 301 305 306 306 305 303 302 301 299 295 294 294 294 294 294 295 296 296 296 297 296 297 297 298 299 300 300 299 299 299 299 299 300 300 301 300 299 300 299 296 293 292 292 292 292 291 293 295 292 294 290 288 284 284 286 287 288 288 287 287 287 287 287 287 287 287 286 286 286 285
309 308 308 308 309 309 308 308 307 304 301 301 301 302 303 304 308 307 305 307 307 302 298 295 294 294 293 293 292 292 293 294 294 294 294 295 295 297 297 298 298 298 298 299 299 299 298 297 298 298 298 299 301 301 297 294 295 291 290 290 291 290 291 292 291 291 289 287 285 284 285 286 287 287 287 287 287 287 287 286 285 285 285 285 285
309 308 308 308 308 308 307 306 305 303 300 300 301 302 303 305 307 306 305 300 299 297 296 294 293 293 292 291 291 290 290 291 292 293 293 293 294 295 296 296 297 297 297 298 298 297 297 297 297 298 299 299 300 299 298 296 296 292 291 290 289 289 289 289 289 289 289 291 287 286 286 285 284 286 286 286 286 286 286 286 285 285 285 285 284
308 307 307 307 308 307 306 305 305 303 300 299 300 301 301 303 304 304 303 298 298 297 294 292 292 292 291 290 290 290 290 290 291 292 291 292 293 294 295 296 296 295 296 297 296 297 297 297 298 299 299 299 297 297 296 296 294 293 293 291 290 290 290 289 288 289 288 286 287 286 286 286 286 285 286 286 286 286 285 285 285 284 284 284 284
Wind_Speed
7 7 6 4 2 4 7 10 9 8 9 10 11 10 12 11 11 11 11 11 12 13 13 14 15 16 16 15 16 16 16 16 16 16 16 17 17 18 18 18 18 18 17 15 14 15 16 15 16 16 16 17 17 19 19 19 19 19 19 19 19 19 18 17 18 17 16 18 22 22 22 20 20 20 20 21 21 22 21 20 15 15 14 17 22
9 6 6 7 3 4 6 8 10 10 9 10 9 10 10 10 11 11 11 12 12 12 13 13 14 15 14 14 15 16 16 16 16 17 17 17 18 18 19 18 18 18 17 16 15 15 15 15 15 15 16 17 18 18 19 19 19 19 18 18 18 19 18 17 17 16 14 14 17 21 21 21 21 20 20 21 21 21 21 21 19 13 13 20 21
3 6 5 7 4 3 1 7 8 9 9 10 10 9 9 10 10 11 11 11 12 12 13 13 13 13 13 14 15 16 16 16 16 17 17 17 18 18 19 19 18 17 17 16 15 15 15 15 15 15 16 16 17 18 20 20 20 19 18 19 19 18 17 17 17 15 14 12 12 15 16 20 21 21 21 21 21 21 20 21 20 16 14 21 20
5 6 5 6 3 4 3 3 8 8 8 10 10 9 10 9 10 10 10 10 11 12 12 13 14 13 13 14 15 16 15 15 16 17 17 17 18 18 18 18 17 17 18 17 16 16 15 15 16 15 16 18 17 19 20 19 19 19 19 19 18 18 16 16 16 15 12 10 11 13 11 14 16 22 21 21 21 22 20 20 20 19 19 19 20
6 6 5 6 6 5 4 5 9 9 9 9 10 10 10 10 10 11 10 10 11 12 12 12 13 14 14 14 14 15 15 15 16 17 17 17 17 17 18 18 18 18 18 18 17 16 16 16 16 16 17 17 18 19 19 19 19 19 19 20 18 16 16 15 13 11 9 11 12 12 12 14 13 20 21 22 22 21 20 21 20 20 19 19 20
7 6 6 7 7 6 4 5 9 9 9 8 9 10 10 10 11 11 11 10 11 11 12 12 13 13 14 15 14 15 15 15 16 16 16 17 17 17 17 17 18 18 18 18 17 17 16 16 17 17 18 18 18 18 19 20 20 20 20 18 17 16 16 15 13 11 9 10 12 11 13 14 13 14 22 21 21 20 21 22 22 21 20 20 19
7 6 6 7 6 6 4 7 9 9 8 8 8 9 10 10 10 11 11 11 10 11 11 11 12 13 14 14 15 15 15 15 16 16 16 17 17 17 17 17 18 17 18 18 17 16 17 17 17 18 19 18 19 19 20 20 21 20 18 17 16 16 15 13 11 10 11 12 10 11 11 14 14 12 21 21 20 21 22 22 23 22 21 20 19
7 6 6 7 6 7 3 6 10 10 10 9 8 8 9 10 10 11 11 11 11 11 11 11 12 13 13 14 14 15 15 16 16 16 16 17 17 17 17 17 18 17 17 17 18 18 18 18 18 19 19 19 20 19 20 20 20 19 17 17 16 15 14 12 8 11 13 12 12 11 11 14 14 13 19 21 22 20 21 22 22 24 24 22 17
7 7 7 6 7 7 4 3 9 10 11 10 8 8 8 9 9 11 11 11 12 12 11 11 12 13 13 14 14 15 15 16 16 16 16 17 17 17 17 17 17 18 17 17 18 18 19 18 18 20 20 20 20 19 19 20 19 18 17 17 15 14 13 11 11 11 12 12 14 12 12 14 13 13 17 22 21 22 22 19 19 23 24 21 21
8 8 6 6 7 7 4 2 10 10 10 10 9 8 7 8 10 11 11 11 11 12 12 12 13 13 13 14 14 14 15 15 15 16 16 17 17 17 17 17 18 17 18 17 18 18 18 19 19 20 20 20 20 20 20 19 18 17 18 15 15 13 12 10 12 13 12 12 15 15 14 14 13 13 17 19 20 21 18 16 15 17 17 21 23
8 8 7 6 8 5 3 2 5 9 11 10 9 9 8 7 9 11 11 11 11 11 12 12 12 13 13 14 14 14 15 15 15 15 16 16 17 17 17 17 17 17 17 18 19 18 18 18 19 20 20 20 20 19 19 18 17 17 16 15 14 13 12 9 13 12 13 13 13 13 13 13 13 12 16 18 20 20 18 18 19 19 21 22 23
8 7 7 6 7 4 3 2 2 9 9 10 10 10 9 6 6 10 10 11 11 11 12 12 12 13 13 14 14 14 14 15 15 15 15 16 16 17 17 17 17 17 17 17 19 18 19 19 20 20 19 18 18 18 17 17 16 16 15 14 13 13 11 9 13 12 12 13 12 13 14 14 14 14 19 18 19 19 19 19 21 22 21 22 22
7 8 6 6 6 5 3 1 2 6 8 10 11 11 9 7 7 9 11 11 11 12 12 12 12 12 13 13 14 15 15 15 15 15 15 16 16 16 16 16 17 17 17 17 17 17 18 18 19 18 18 17 17 17 17 17 16 16 15 14 12 12 10 11 13 13 12 12 11 13 13 12 12 16 17 18 19 18 19 20 19 20 21 21 21
8 6 7 7 6 6 2 3 1 2 6 9 11 11 10 9 8 9 10 10 10 11 12 12 12 12 13 13 14 15 15 15 15 15 15 15 16 16 16 16 16 16 16 17 17 18 18 18 18 18 17 17 17 17 17 17 16 16 15 14 13 10 7 11 14 12 12 13 13 14 15 12 12 15 17 18 18 19 20 19 19 19 20 19 19
9 7 6 7 7 8 6 4 2 4 2 3 9 9 10 9 7 10 10 10 10 11 11 12 12 13 13 14 14 15 15 15 15 15 15 15 15 16 16 16 16 16 16 16 17 17 17 17 17 17 17 17 17 17 17 16 16 15 15 14 13 11 10 10 10 12 11 11 11 14 13 12 19 19 19 19 18 19 19 19 19 19 19 19 19
8 8 6 6 7 8 8 6 2 3 2 3 5 7 8 7 8 10 10 9 10 11 11 11 12 12 13 13 14 15 15 15 15 15 15 15 15 15 15 16 16 16 16 17 17 17 17 17 17 17 17 17 17 17 17 17 16 15 14 14 12 10 10 8 9 11 11 10 10 11 11 12 18 21 20 20 20 21 20 19 20 19 20 19 18
6 7 7 6 7 7 7 6 5 2 6 5 3 4 6 7 9 9 9 8 9 10 10 10 10 12 13 13 13 13 14 15 16 15 15 15 15 15 15 16 16 16 16 17 17 17 17 17 17 18 18 18 18 18 17 17 16 15 14 13 12 10 10 9 10 10 10 10 9 10 10 11 15 19 21 20 19 20 22 21 21 22 22 21 20
4 3 5 4 6 6 5 6 6 6 7 6 5 3 3 6 9 9 9 8 7 8 8 9 10 11 11 12 12 12 13 15 15 15 15 14 14 15 15 15 16 16 16 17 17 17 17 18 18 18 18 18 18 18 17 17 16 15 14 12 11 10 10 10 10 9 11 10 10 11 11 13 17 18 20 21 21 20 21 21 21 22 22 22 22
5 3 3 4 4 5 6 6 7 5 6 6 6 5 2 4 8 9 9 7 7 8 9 9 10 11 11 12 12 12 13 13 13 13 13 12 12 12 13 15 16 16 16 17 17 17 17 17 18 18 18 18 18 18 17 17 16 15 14 12 9 10 10 10 10 10 11 10 10 11 11 14 18 19 20 22 22 21 22 20 20 21 22 23 22
4 4 3 2 3 4 5 4 5 6 5 5 5 7 4 3 8 9 9 8 9 9 10 9 10 11 12 13 13 13 12 11 12 12 11 11 11 12 12 15 16 16 16 16 16 17 17 17 17 18 18 18 18 18 17 17 16 15 13 11 11 11 9 9 11 11 11 11 11 11 11 15 18 19 20 21 22 22 21 21 21 21 22 22 22
2 2 3 3 3 3 4 5 5 7 6 7 6 5 5 5 7 9 11 9 8 9 10 10 10 11 11 12 11 11 10 10 10 11 11 11 11 12 13 15 16 16 17 17 17 17 17 17 17 18 18 18 18 18 17 16 16 15 13 11 11 9 9 9 11 11 10 10 12 11 13 14 17 19 20 20 21 21 21 21 21 22 21 23 23
5 4 2 3 3 3 2 3 4 7 6 6 6 5 5 6 8 9 8 8 8 9 8 7 8 8 10 10 9 8 8 8 8 11 10 11 11 12 13 14 16 16 16 17 18 17 17 17 17 16 14 12 11 8 10 13 15 14 12 12 9 8 9 9 10 11 11 11 12 11 13 16 18 19 19 20 21 20 20 21 22 22 22 23 24
8 6 4 4 2 3 3 4 3 4 7 7 6 6 7 6 6 7 7 8 8 8 7 7 8 9 9 9 8 8 8 8 6 7 8 10 11 13 13 14 16 16 16 17 17 17 17 16 15 13 12 11 8 7 6 6 7 10 10 9 8 8 8 10 10 10 11 10 9 11 16 17 18 19 20 20 20 21 21 21 22 22 23 23 23
9 6 6 3 2 2 2 2 3 4 7 6 6 6 7 7 6 6 6 7 7 7 8 8 8 9 8 7 8 8 8 6 10 15 12 10 9 12 14 14 15 14 15 14 16 16 16 14 11 9 8 7 6 7 6 6 7 7 7 8 7 8 9 8 8 9 10 12 11 16 17 18 19 19 20 20 20 21 21 21 22 21 22 23 23
7 3 3 4 3 2 2 2 2 3 7 6 6 6 6 6 6 6 7 7 7 7 6 7 8 8 8 7 7 7 7 7 8 7 7 8 9 9 9 8 8 9 10 10 9 8 8 7 7 8 7 7 7 7 7 7 7 7 7 7 8 8 8 8 8 9 9 10 13 18 17 19 20 20 20 20 22 22 21 22 22 22 22 22 22
4 6 6 5 4 2 1 1 2 3 3 5 7 6 6 6 6 7 7 7 7 7 7 6 6 7 7 6 7 8 7 7 7 6 7 8 8 6 6 7 8 8 7 7 7 7 7 7 7 7 7 7 7 7 8 7 7 7 7 8 7 8 7 7 8 8 9 10 13 20 19 17 20 20 21 21 20 20 21 21 22 23 22 23 24
6 6 5 4 4 3 3 2 2 3 3 2 3 4 5 7 7 7 8 8 7 8 8 7 7 7 7 7 7 8 9 7 7 6 6 7 7 6 6 6 6 6 5 6 7 6 6 7 7 7 7 7 8 8 9 8 7 7 8 8 8 8 7 7 7 7 8 9 12 20 18 19 20 20 22 22 23 21 21 22 22 23 23 23 23
6 6 5 5 5 5 4 4 4 3 3 3 4 4 5 7 8 7 8 8 8 8 8 7 8 7 7 8 9 8 9 8 7 7 7 6 6 6 6 6 5 5 5 5 7 6 7 7 7 7 8 7 8 8 7 7 7 7 9 8 8 8 7 7 7 8 8 9 11 18 20 19 21 21 20 23 22 22 23 22 23 24 24 25 25
8 7 6 6 6 5 5 5 4 5 4 4 5 4 5 4 7 8 9 9 9 7 8 8 8 8 8 9 9 8 7 8 7 8 6 6 6 6 5 5 5 4 5 5 7 7 6 7 6 6 6 7 7 7 7 7 6 7 8 8 8 8 7 7 7 8 8 8 9 14 21 21 20 20 21 21 23 23 22 23 23 23 23 24 26
10 8 6 6 4 5 6 5 4 3 3 4 5 5 4 5 5 6 8 9 9 9 7 8 9 8 9 9 9 7 7 8 8 7 6 7 7 6 6 5 4 4 5 7 6 6 7 8 7 7 6 7 8 7 7 7 7 7 8 8 8 8 7 7 7 7 7 8 8 11 20 21 19 20 21 21 22 22 22 21 21 22 23 24 23
8 8 7 5 4 4 4 4 4 3 3 5 6 6 4 6 6 3 2 8 10 10 8 7 5 8 10 11 10 9 8 8 8 9 7 8 8 8 7 6 4 4 4 6 5 6 7 8 7 7 6 8 8 6 7 7 7 8 8 8 7 7 7 7 7 7 8 7 7 8 12 20 21 21 21 22 22 22 22 22 21 21 22 23 24
9 9 6 5 4 6 5 6 6 5 6 7 6 7 8 7 5 4 3 2 3 9 9 9 7 7 10 11 10 10 10 8 11 10 10 9 9 10 9 8 7 4 5 6 6 6 8 8 7 6 7 8 8 7 6 7 7 8 7 8 7 7 7 7 7 8 7 7 6 7 7 10 18 21 22 22 22 23 22 23 23 23 22 23 22
6 7 6 5 6 5 6 6 6 7 7 8 7 9 10 8 4 4 4 5 2 5 7 7 8 8 7 8 8 11 10 9 10 10 10 10 10 10 10 9 7 6 4 7 8 7 8 8 7 6 7 8 9 7 6 7 8 8 8 8 7 8 7 7 7 7 7 7 6 6 6 7 8 15 21 21 22 23 23 23 23 23 23 23 22
7 6 7 7 6 3 3 4 5 7 8 7 7 10 10 9 6 3 4 5 5 4 5 5 6 7 7 9 6 8 11 10 10 9 10 10 9 10 12 10 8 9 8 8 7 7 7 9 8 8 8 8 8 7 7 8 8 7 8 7 7 7 6 7 6 6 6 7 6 7 6 6 6 7 9 19 22 21 22 23 23 23 23 23 23
6 7 9 9 8 6 5 5 6 8 8 9 9 11 9 6 6 5 5 5 5 5 3 6 7 8 8 8 10 7 9 11 12 11 10 10 12 12 13 10 8 9 8 7 7 7 8 9 8 9 8 7 7 7 7 8 8 8 7 6 7 6 7 7 6 6 7 7 7 7 6 6 7 7 8 8 14 20 21 22 23 24 24 23 23
9 8 8 7 8 8 8 7 7 8 10 9 10 8 3 4 5 4 4 4 4 4 4 2 4 5 8 7 9 9 9 10 11 11 8 7 8 7 8 9 10 7 6 7 7 8 8 8 8 8 9 8 8 8 7 8 8 8 7 7 6 6 7 6 6 7 6 6 7 7 6 7 8 8 8 7 8 12 20 21 22 23 23 23 23
10 10 10 9 9 9 9 10 10 10 9 7 7 6 3 4 5 5 4 4 5 4 4 4 4 4 4 6 7 8 9 10 7 8 11 10 9 7 8 10 10 9 7 6 5 5 8 8 8 7 8 9 9 9 8 7 8 8 7 8 6 6 6 5 6 6 5 6 6 6 7 8 8 8 6 6 6 7 14 18 21 22 22 22 23
10 10 9 9 9 9 9 9 10 9 8 8 6 4 3 3 4 4 4 3 2 2 2 3 4 4 5 6 7 7 7 10 9 8 7 9 9 9 7 8 9 9 8 7 6 5 6 8 10 7 8 9 9 9 9 8 7 7 8 7 6 6 5 5 5 5 5 6 6 7 7 6 6 6 5 6 6 6 6 10 14 18 21 21 22
8 10 9 9 8 9 9 9 8 9 6 5 5 4 5 4 4 5 4 3 3 2 1 2 3 3 5 7 6 6 7 7 7 8 7 7 9 9 9 7 6 7 7 7 7 6 6 7 10 10 8 8 9 8 8 8 8 8 8 8 7 7 6 5 5 5 5 5 6 6 6 6 5 5 5 6 6 6 7 7 7 7 10 20 20
9 9 10 9 9 10 10 8 8 8 6 6 5 4 4 5 5 3 3 2 3 3 1 2 4 4 4 6 5 4 5 6 6 6 9 7 8 8 9 7 7 7 9 9 8 6 8 11 11 11 11 9 8 8 8 9 10 10 9 8 8 8 8 6 6 5 5 5 5 5 5 4 5 5 6 6 6 7 7 7 7 7 7 11 18
10 11 11 11 12 9 11 10 8 7 7 6 6 7 6 7 6 6 5 5 4 4 4 2 2 4 4 4 6 5 6 7 7 7 9 10 8 9 8 7 6 8 8 9 11 9 8 9 10 9 12 12 8 7 8 8 10 9 8 9 8 8 7 7 7 6 6 5 4 4 4 4 5 5 6 6 7 7 7 7 7 7 7 7 8
12 12 13 12 12 13 12 11 7 7 7 8 7 6 6 7 6 6 5 5 5 4 4 3 2 3 4 4 4 6 6 6 7 8 9 10 10 10 10 10 8 8 8 9 8 8 9 10 10 10 7 10 9 8 7 7 6 8 9 7 7 6 6 7 7 6 5 5 4 4 4 4 5 4 4 5 6 7 7 7 6 7 7 7 7
13 13 13 12 13 14 12 11 7 8 7 8 8 7 4 2 5 6 5 4 3 3 3 3 3 3 3 4 3 5 6 5 5 7 8 9 10 10 9 10 9 9 10 9 9 10 10 11 12 12 10 6 6 3 3 4 6 7 7 8 6 6 5 5 6 6 5 4 4 4 4 4 4 3 3 4 5 6 6 6 6 7 7 6 6
12 12 13 14 13 13 13 10 9 8 8 8 7 5 5 6 6 6 5 3 4 4 5 4 4 4 4 3 3 3 4 5 4 5 4 7 9 9 8 8 7 7 10 12 10 10 11 10 9 9 11 11 7 5 1 3 4 10 7 2 6 4 5 4 5 4 4 4 4 4 3 3 3 3 3 4 5 5 5 5 6 6 6 6 6
13 12 13 13 12 16 14 11 9 9 8 7 6 8 8 7 7 7 6 7 6 5 5 3 2 3 4 4 2 2 4 5 5 5 7 7 6 8 9 8 10 8 7 9 10 11 11 10 11 11 11 12 10 6 3 3 3 3 1 6 3 4 3 7 7 5 4 3 3 4 3 3 3 3 3 4 4 4 4 5 5 5 5 6 6
13 12 12 13 14 15 14 12 8 8 9 9 8 8 8 9 9 8 8 5 6 6 7 8 7 6 6 5 4 3 4 5 5 7 7 7 8 8 9 10 8 8 8 9 9 9 10 10 10 10 10 8 10 8 5 3 1 2 4 4 3 2 5 8 7 4 3 2 3 3 3 3 2 3 3 4 4 4 4 4 4 5 5 5 6
13 11 11 12 15 14 14 11 9 8 8 9 9 7 8 8 11 9 8 8 8 6 5 4 5 5 5 7 6 5 4 6 6 7 8 6 8 7 8 9 10 9 7 8 9 10 9 9 8 8 8 8 9 9 8 7 4 2 1 1 1 1 3 9 5 7 5 5 3 3 3 3 3 3 3 3 3 3 3 3 3 4 5 5 5
12 12 12 13 15 17 15 15 9 8 8 9 11 9 8 7 9 9 9 9 9 10 9 7 4 4 5 6 6 5 4 4 6 6 7 8 7 7 6 6 7 6 7 8 9 8 8 5 7 5 6 7 9 8 9 8 9 5 3 3 3 3 3 3 2 4 4 7 5 3 3 2 3 3 3 3 3 3 3 3 3 3 4 5 5
12 13 13 14 14 15 13 11 10 10 9 11 11 10 9 10 9 9 8 6 7 6 6 6 6 5 6 4 5 5 4 4 4 5 6 6 6 8 8 7 7 8 7 7 7 8 10 10 8 7 8 8 7 6 8 9 7 6 6 4 4 4 3 2 1 1 3 5 5 7 6 4 3 3 3 3 2 3 3 3 3 3 3 4 5
12 12 13 14 14 14 12 12 11 9 9 11 10 11 9 9 9 8 10 7 5 7 6 7 6 6 5 5 5 4 4 4 4 5 6 6 6 7 7 9 9 9 7 7 7 8 8 8 9 9 8 8 6 6 7 7 5 6 6 6 6 5 5 4 3 3 1 1 3 7 6 6 5 4 3 3 3 3 3 2 3 3 3 4 5
11 13 14 14 14 15 13 14 12 9 10 11 11 11 8 7 7 8 9 8 9 10 8 6 6 6 6 6 5 5 5 4 5 5 4 7 6 7 8 8 7 7 7 8 9 9 9 9 8 8 8 8 6 5 4 5 5 6 6 6 6 7 5 6 6 6 4 4 4 5 4 4 2 4 4 3 3 3 2 2 2 2 3 3 4
Wind_Direction
141 142 141 112 255 146 141 129 129 110 118 121 124 118 113 107 103 100 99 97 96 94 94 94 93 88 85 79 75 74 71 69 68 67 67 68 69 68 67 67 67 67 68 68 74 80 80 80 79 78 79 78 78 78 77 76 72 71 69 68 67 66 62 59 57 56 56 59 59 56 57 54 52 52 52 49 48 46 41 34 32 52 42 42 42
139 140 144 134 86 135 147 131 125 131 125 122 117 112 108 108 105 103 101 98 98 96 94 94 95 95 89 82 78 76 72 70 68 67 66 66 67 68 68 67 66 68 70 72 75 78 81 81 80 80 80 79 80 81 80 78 76 73 70 68 67 65 62 57 57 56 53 61 67 63 57 56 54 53 53 52 50 48 46 41 34 47 45 39 42
144 147 140 117 85 61 135 135 125 121 125 125 119 112 108 108 107 106 105 103 102 102 100 99 99 96 92 86 82 77 72 69 68 65 64 65 67 67 68 70 69 70 72 76 80 82 83 83 83 83 81 80 84 85 82 79 78 74 71 70 69 66 60 56 55 52 49 51 60 72 71 61 54 53 54 53 52 50 48 47 42 43 48 42 40
148 148 144 121 96 45 64 126 111 107 117 120 118 114 112 110 107 107 105 104 105 104 104 102 99 95 92 87 83 78 73 70 67 65 64 65 68 69 70 71 73 73 76 80 83 85 86 84 85 86 82 79 82 83 82 81 78 75 71 70 68 65 59 57 56 50 40 36 48 62 61 60 56 53 53 53 52 51 48 49 50 47 47 43 41
151 142 142 145 147 90 45 120 114 111 112 115 113 112 111 109 109 109 109 106 107 105 105 104 103 101 97 91 86 81 75 71 67 67 66 66 68 69 71 73 74 75 77 80 84 85 87 88 87 86 83 83 82 82 81 80 76 74 72 69 66 60 52 50 45 40 38 48 52 60 62 62 60 53 53 52 52 50 50 49 49 50 48 46 44
151 143 146 145 140 126 68 122 122 116 119 117 110 110 109 111 112 110 107 107 108 108 105 103 96 94 95 95 88 80 77 73 71 69 68 69 70 70 71 73 74 75 76 78 80 84 86 88 91 86 83 86 86 85 83 78 75 71 67 64 60 55 51 46 39 20 46 60 61 63 62 59 58 54 51 51 54 53 52 52 50 49 47 44 45
155 151 153 151 147 123 93 139 129 122 122 122 115 114 113 114 115 114 110 108 105 104 103 102 101 99 94 90 86 82 74 72 72 71 70 69 70 71 72 73 74 74 75 79 83 87 88 87 88 85 82 82 79 76 76 76 73 70 63 60 59 58 54 46 37 31 51 55 58 62 65 63 57 56 53 52 53 53 52 52 51 50 49 47 46
163 160 165 155 152 131 120 147 136 132 135 134 127 122 121 120 116 110 112 114 111 105 102 104 101 96 94 92 88 82 76 73 73 72 72 71 71 71 73 75 76 75 77 80 84 86 86 87 84 85 85 81 78 78 79 75 69 65 62 62 63 58 50 40 31 59 53 61 63 59 62 62 61 58 55 55 54 53 52 53 53 52 50 49 45
173 170 169 158 142 115 122 125 140 138 137 134 133 129 124 125 120 117 117 115 115 116 116 108 103 101 97 93 87 82 78 76 74 74 73 73 73 74 75 75 76 77 78 81 83 83 83 81 78 77 76 76 75 74 73 70 66 64 66 67 61 55 49 37 34 53 64 65 65 57 60 65 60 60 60 57 55 56 54 51 53 53 52 51 51
171 172 172 171 147 131 134 146 150 145 136 135 134 135 120 123 123 119 117 118 119 117 113 110 106 108 105 99 93 86 83 80 77 75 75 76 76 76 75 75 75 77 80 80 82 84 81 76 76 76 76 74 72 71 70 67 66 68 70 64 59 54 44 46 61 60 68 68 74 69 53 57 64 61 60 63 57 55 61 59 54 55 54 55 54
170 172 174 167 145 131 139 134 139 147 143 142 141 139 133 127 127 123 116 112 114 113 109 107 110 109 106 100 93 88 84 82 80 79 78 79 79 80 79 79 78 77 80 82 83 82 83 80 75 74 73 71 72 71 70 70 70 69 67 63 57 50 39 20 66 66 69 65 64 70 76 70 65 62 65 64 60 61 59 59 59 56 56 56 55
178 170 169 158 121 150 121 97 110 156 148 147 144 142 143 139 135 131 118 114 114 112 112 114 116 112 110 106 99 92 86 84 82 81 81 82 83 83 82 82 81 80 80 82 84 85 82 81 79 76 76 75 75 74 73 72 70 68 66 61 57 51 34 28 69 69 67 70 67 63 60 59 63 64 66 67 65 65 63 63 62 60 57 57 57
175 172 167 165 159 123 137 67 91 156 150 153 148 144 147 147 139 134 128 123 120 119 117 118 117 116 111 109 105 95 90 87 86 85 84 85 85 85 84 83 83 82 83 84 85 85 86 85 80 79 78 76 75 74 74 73 71 67 62 58 54 52 41 36 71 71 68 66 67 62 59 61 61 59 68 68 67 68 64 63 64 61 57 55 55
158 183 176 167 159 135 135 97 78 47 166 161 153 147 152 147 143 138 129 117 123 124 122 123 121 116 113 110 106 100 95 93 91 91 90 89 88 88 87 86 86 86 86 87 88 89 89 88 83 80 78 76 75 74 74 74 71 65 60 53 46 33 36 69 72 68 66 66 60 59 58 58 61 65 67 68 64 61 63 65 64 64 59 57 58
166 172 169 170 165 163 143 120 76 6 75 188 153 146 151 151 135 120 124 129 128 128 126 124 123 122 119 113 110 105 100 98 94 92 91 90 91 91 91 90 89 90 90 90 90 90 90 86 83 81 78 76 75 74 73 71 67 62 58 54 46 32 10 68 68 71 68 69 68 64 62 59 61 66 68 70 70 69 68 68 65 60 57 54 54
185 162 169 168 173 163 172 132 94 5 44 108 164 151 146 144 131 130 129 132 133 130 129 128 128 126 122 120 114 107 101 99 95 93 92 92 91 92 92 92 92 92 92 91 90 91 91 87 84 82 79 77 75 73 71 69 66 62 58 53 47 32 22 51 68 67 65 65 64 62 61 57 59 61 65 67 67 67 65 64 65 60 57 56 58
181 172 169 166 193 180 169 165 132 123 131 93 82 133 145 143 137 134 128 123 131 132 131 128 125 126 123 118 110 101 100 99 96 93 93 93 92 92 93 93 93 94 94 94 92 92 90 88 85 82 79 77 75 73 71 68 64 61 58 55 47 36 28 49 68 62 63 60 59 61 55 55 54 60 59 60 63 64 63 58 55 58 60 58 59
128 148 85 142 182 194 173 169 170 179 173 135 112 83 144 143 133 131 126 128 132 127 124 121 121 119 113 110 107 101 100 99 99 96 94 92 94 93 93 94 96 96 96 95 94 92 91 89 87 84 81 77 75 73 70 67 63 60 56 51 47 39 38 50 67 63 65 61 62 62 61 54 56 57 54 55 58 59 59 55 55 56 58 59 59
122 94 117 94 127 179 179 182 180 173 186 194 174 132 113 140 132 129 128 129 112 107 105 107 114 115 112 111 106 101 96 97 97 98 93 90 89 89 91 95 97 97 96 95 94 93 92 90 88 85 82 79 76 74 70 66 61 57 52 46 39 44 43 60 60 63 62 64 61 61 61 62 63 60 55 51 52 54 55 53 51 52 57 60 61
102 158 116 73 101 151 156 181 188 187 181 182 195 173 134 159 140 134 126 118 114 110 108 106 111 110 111 114 111 109 107 103 105 101 94 92 91 93 93 96 96 97 96 95 93 92 90 89 87 86 83 80 75 70 68 64 60 55 48 41 42 45 57 58 59 67 66 62 63 65 45 58 64 62 60 58 57 57 57 54 55 53 54 58 59
100 158 144 122 96 100 133 168 171 190 195 194 198 186 139 159 145 129 122 116 114 111 108 109 112 116 121 124 130 122 122 121 118 109 106 99 97 95 97 98 98 97 97 95 93 91 89 87 87 86 83 81 77 70 63 61 58 53 47 40 45 55 50 53 64 68 65 65 66 62 53 59 66 65 62 62 61 57 57 57 57 55 54 57 60
174 172 118 137 127 96 163 123 156 175 172 193 207 189 159 202 171 149 135 125 120 123 129 130 131 132 134 147 141 132 135 127 112 115 110 111 103 99 101 102 102 99 98 96 93 91 89 89 87 83 81 79 85 84 75 63 55 52 44 41 52 51 46 49 59 64 52 60 62 50 54 64 66 67 66 64 64 63 59 58 57 58 55 55 57
188 184 164 152 144 145 150 151 162 150 167 190 206 201 187 181 180 169 139 138 139 142 141 139 147 147 157 155 150 146 141 136 128 105 104 92 103 105 102 102 102 99 96 95 93 92 91 88 84 80 77 78 76 74 71 71 68 53 51 50 54 47 45 47 52 54 46 28 31 8 64 63 64 66 68 66 65 66 64 61 61 59 59 56 56
188 185 160 136 161 157 125 151 157 175 192 189 194 207 197 183 187 176 158 151 154 157 152 156 161 163 163 161 159 140 137 116 97 112 116 116 97 92 96 95 95 95 100 95 92 91 91 82 74 77 74 66 68 70 67 64 64 60 60 58 55 48 45 44 49 51 47 32 20 10 59 67 67 70 70 68 67 67 69 67 64 63 62 62 61
190 138 150 157 154 163 159 158 165 167 202 203 196 197 201 195 191 185 175 162 158 158 159 164 165 168 163 163 156 137 132 127 135 138 132 128 126 125 122 122 122 119 121 111 112 115 106 94 81 71 69 65 65 65 64 65 66 68 66 62 59 54 52 47 48 52 49 37 20 16 45 63 67 67 66 68 69 68 65 64 65 66 64 61 61
131 187 179 159 170 164 180 173 199 172 182 207 204 201 205 197 196 192 181 163 164 165 169 163 165 167 169 161 157 149 137 142 150 144 137 137 141 142 134 134 131 126 127 118 113 109 104 95 84 78 72 69 65 67 65 63 68 69 69 65 62 60 55 50 51 53 50 44 26 12 33 54 60 64 65 62 66 68 70 65 65 62 64 64 65
177 194 172 170 167 182 172 214 220 188 182 197 175 198 216 204 199 184 180 178 171 172 171 166 171 164 169 165 163 168 158 154 149 145 141 141 140 142 135 136 135 125 118 113 109 105 100 93 86 84 81 77 74 73 72 69 69 74 74 69 67 64 60 56 50 51 52 49 34 18 23 48 59 64 61 60 62 61 67 68 64 64 62 62 61
181 187 185 183 184 187 181 197 208 213 191 192 198 184 216 219 199 179 189 175 173 178 175 172 173 174 175 176 184 171 168 157 156 152 150 139 138 136 131 131 122 110 110 109 110 100 94 90 88 88 89 82 78 76 77 74 74 75 76 71 71 68 63 60 57 50 53 49 44 22 21 37 52 59 56 55 53 57 60 63 61 59 59 59 56
198 190 187 190 188 184 191 203 203 214 218 209 220 179 197 229 210 187 202 165 179 174 180 171 177 180 177 182 193 180 171 158 156 157 142 129 115 113 110 104 99 87 102 103 105 107 99 96 93 93 90 91 84 76 76 76 76 75 76 75 74 72 67 66 62 57 58 60 51 31 27 25 52 55 59 54 54 53 55 57 59 61 59 57 56
207 196 187 203 191 188 202 209 208 216 223 231 232 214 189 206 218 199 193 170 180 180 173 174 184 185 181 183 188 191 179 162 156 147 134 121 116 105 96 100 110 107 109 111 115 115 113 105 102 100 101 96 88 84 86 80 74 72 71 73 71 71 69 66 62 63 68 64 58 51 32 29 34 64 61 60 58 56 55 57 60 59 59 58 56
205 201 199 199 193 205 222 230 225 218 230 229 231 228 210 222 217 173 214 190 181 172 173 193 195 180 180 183 182 184 177 169 149 143 130 134 134 132 125 119 99 75 97 109 109 108 110 108 111 113 108 101 94 89 89 86 80 74 69 68 70 70 67 63 62 62 63 63 66 61 49 38 36 38 58 61 60 58 56 56 56 56 56 55 55
199 207 204 196 194 212 220 223 229 221 221 224 225 226 224 227 214 195 178 275 214 181 180 189 194 193 183 181 185 182 177 166 156 154 152 152 149 143 135 132 121 106 115 114 116 101 98 98 98 100 102 101 99 93 88 89 82 77 71 68 65 66 63 62 61 57 58 62 66 69 64 60 46 44 41 55 60 59 60 59 58 56 56 55 55
197 198 194 187 205 208 219 223 229 231 225 226 222 222 222 217 210 200 186 193 179 185 181 180 187 183 178 175 189 179 178 163 157 155 156 150 143 143 144 133 129 133 126 121 116 107 108 110 105 104 99 95 94 91 87 86 81 75 70 68 68 63 59 62 62 59 56 57 58 57 60 59 64 53 46 43 53 59 59 59 59 57 54 55 53
183 181 183 196 194 197 204 221 227 230 229 225 219 219 219 215 203 185 191 192 184 171 199 178 180 177 176 175 169 189 173 166 156 155 154 150 147 149 148 143 140 137 131 129 124 123 116 116 116 109 102 100 101 98 95 88 83 79 73 68 68 65 67 66 62 58 59 58 55 53 52 49 50 55 56 45 40 47 54 56 56 56 55 52 51
183 187 191 193 190 195 199 215 214 224 218 218 212 215 214 192 183 184 183 186 182 172 184 200 182 181 171 172 176 179 176 171 159 154 154 148 156 156 153 145 132 137 139 146 136 127 123 123 124 116 108 101 96 93 92 89 85 79 75 74 72 70 69 67 61 60 58 58 55 53 49 50 47 47 49 57 47 41 47 51 52 51 51 50 48
197 192 190 190 196 196 196 208 202 207 207 202 202 199 183 173 156 163 174 165 162 171 159 190 164 170 167 168 168 165 167 159 155 147 139 136 134 130 132 140 141 145 148 147 139 129 125 118 112 117 115 107 104 98 93 91 85 81 76 74 72 71 74 69 62 60 54 58 57 54 54 49 46 43 43 55 60 46 46 49 49 47 47 46 46
194 191 190 189 197 193 197 201 198 199 190 179 176 175 174 160 140 140 159 155 154 151 148 154 172 149 149 143 151 160 159 147 124 132 145 141 136 134 137 148 148 146 142 135 114 114 123 121 111 108 116 116 108 105 101 97 92 86 82 75 71 74 73 69 71 70 64 62 63 61 56 51 46 40 46 46 52 59 47 48 49 45 42 43 44
194 195 194 192 193 188 196 197 195 189 183 179 166 144 141 126 118 120 104 96 97 92 113 137 134 144 139 134 147 149 144 150 141 131 130 137 134 135 139 147 143 140 139 130 114 102 117 122 116 115 122 122 119 116 111 103 96 90 81 76 77 77 76 74 74 73 71 70 64 61 59 58 53 48 48 49 49 47 49 50 52 50 42 40 40
194 193 193 193 192 192 192 183 184 179 164 146 118 120 123 110 90 105 117 123 111 101 104 134 121 122 132 131 133 138 139 135 130 129 121 129 131 131 139 135 123 122 119 118 113 113 115 120 123 126 121 115 120 116 113 107 101 95 89 83 79 74 71 70 72 71 72 69 68 65 62 58 59 51 51 51 50 49 45 43 41 43 43 37 38
192 190 191 192 194 191 186 181 188 174 154 145 143 140 143 143 125 98 126 134 126 125 89 86 134 124 126 135 125 125 117 129 128 123 129 127 129 132 129 133 134 130 133 128 132 132 132 128 129 129 119 109 109 117 120 114 103 95 91 83 77 74 72 72 71 70 69 63 61 61 63 62 58 54 50 49 47 45 45 42 41 38 37 38 37
192 191 191 192 194 181 183 184 181 161 164 159 164 159 159 144 145 161 156 153 141 128 121 92 103 116 137 131 126 136 131 127 132 137 137 138 133 130 124 123 127 135 134 137 141 137 138 131 128 126 128 125 125 133 131 126 117 100 95 93 88 81 79 76 72 65 60 59 59 66 64 65 60 55 51 50 48 45 44 43 40 38 34 29 31
194 191 194 190 192 194 193 187 177 173 172 169 166 172 172 164 164 164 144 144 140 148 138 127 47 85 118 122 119 126 130 136 149 149 142 140 139 143 142 141 140 138 134 139 137 135 139 136 137 123 127 131 135 150 152 150 127 133 133 120 102 95 88 84 74 65 65 64 64 67 69 66 61 60 60 62 56 50 47 44 41 39 36 33 27
189 190 192 187 191 195 195 186 173 177 176 176 173 177 164 116 156 143 148 120 46 66 83 92 111 104 89 85 99 123 131 129 146 154 149 144 147 150 148 143 146 141 138 144 144 148 149 148 152 142 137 131 132 139 167 282 145 142 130 130 140 137 136 110 93 78 75 74 76 75 73 73 60 57 62 65 64 58 52 48 45 41 38 33 29
191 189 190 195 195 197 197 178 176 180 179 175 176 135 107 92 81 95 78 74 133 104 93 86 92 100 94 75 81 113 114 123 124 135 142 138 142 140 133 132 136 152 147 150 157 155 154 156 154 148 140 139 157 171 256 261 176 152 163 204 163 177 153 165 135 107 90 79 75 83 82 82 83 80 74 69 67 64 62 57 50 45 39 35 28
192 190 191 195 202 198 193 183 173 179 175 167 145 132 121 105 97 87 89 92 84 105 114 103 98 108 111 107 100 66 119 134 139 149 152 134 120 138 142 140 149 162 156 153 162 162 162 162 154 152 162 152 158 158 181 220 243 328 181 141 149 208 206 135 143 134 156 121 83 82 77 85 88 81 82 79 76 72 69 62 56 49 40 34 26
196 193 192 199 203 198 193 185 173 178 173 162 151 150 154 144 147 148 155 156 144 158 170 166 167 169 160 135 114 123 130 134 143 150 150 145 137 151 144 149 155 161 166 161 157 154 162 162 165 162 165 172 153 155 154 191 246 268 304 332 348 343 140 155 176 151 129 94 114 99 90 93 97 89 85 88 81 77 68 66 59 55 42 32 24
197 187 190 201 205 194 195 184 176 173 164 159 161 162 160 166 166 165 159 162 157 178 174 165 151 142 139 148 141 142 146 147 146 158 156 159 139 151 148 159 162 161 158 155 159 165 163 164 165 171 167 158 159 157 162 164 170 218 306 336 21 327 141 151 198 124 161 157 171 155 127 114 98 96 94 89 89 92 81 76 67 59 48 32 23
188 185 195 202 203 199 193 191 178 171 162 164 172 176 168 171 172 171 170 173 174 164 162 150 120 124 135 133 139 143 147 148 151 156 152 154 147 145 149 154 157 154 153 163 160 159 160 156 166 164 158 166 174 166 161 166 179 162 153 134 108 108 121 5 137 192 168 161 163 141 155 151 127 98 89 95 103 93 93 79 59 46 43 34 23
185 186 195 203 200 197 184 179 182 172 169 173 178 180 176 179 177 170 174 173 163 139 129 127 139 151 137 130 129 130 137 132 144 157 153 150 147 151 154 158 158 160 165 165 161 158 162 162 167 167 175 179 187 172 159 174 188 153 149 136 139 135 121 85 80 341 179 176 158 175 167 159 159 125 112 106 94 89 83 75 61 45 41 34 24
186 183 197 202 200 195 178 182 181 172 172 177 181 185 187 187 180 174 172 159 128 126 136 142 145 155 141 140 136 138 140 140 154 164 151 147 147 146 154 164 166 164 168 160 147 154 159 166 174 178 180 181 184 173 173 165 165 146 164 151 150 140 140 146 168 160 86 293 186 181 171 172 185 149 134 124 120 115 103 93 76 53 38 32 20
182 189 199 200 200 198 183 188 185 171 172 178 178 185 190 199 185 175 168 154 150 147 144 149 146 154 155 155 156 148 148 152 170 166 157 142 150 158 163 167 162 157 155 152 166 167 168 173 177 179 181 181 176 166 142 144 148 155 164 173 166 169 171 181 173 182 178 166 152 153 157 185 195 161 134 118 129 124 107 95 78 54 39 31 18